Watford City, ND

6:42 AM CST on December 11, 2019 (GMT -0600)
Watford City

Weather History for KS25 - October, 2019

Change the Weather History Date:

Tuesday, October 29, 2019

  Actual Average (KISN) Record (KISN)
Temperature  
Mean Temperature 18 °F -  
Max Temperature 23 °F 49 °F 72 °F (1968)
Min Temperature 12 °F 26 °F -3 °F (1895)
Degree Days  
Heating Degree Days 48    
Moisture  
Dew Point 11 °F    
Average Humidity 74    
Maximum Humidity 93    
Minimum Humidity 54    
Precipitation  
Precipitation 0.00 in - - ()
Sea Level Pressure  
Sea Level Pressure 30.24 in    
Wind  
Wind Speed 14 mph (West)    
Max Wind Speed 24 mph    
Max Gust Speed 33 mph    
Visibility 9 miles    
Events Snow    
Averages and records for this station are not official NWS values.
T = Trace of Precipitation, MM = Missing Value Source: NWS Daily Summary

Daily Weather History Graph

Daily Weather History Graph

Search for Another Location

Airport or City:

Astronomy

Oct. 29, 2019 Rise Set
Actual Time 8:32 AM CDT 6:40 PM CDT
Civil Twilight 8:00 AM CDT 7:12 PM CDT
Nautical Twilight 7:24 AM CDT 7:48 PM CDT
Astronomical Twilight 6:48 AM CDT 8:24 PM CDT
Moon 10:13 AM CDT (10/29) 7:59 PM CDT (10/29)
Length of Visible Light 11h 11m
Length of Day
10h 07m
Waxing Crescent, 3% of the Moon is Illuminated
Oct 29
Waxing Crescent
Nov 4
First Quarter
Nov 12
Full
Nov 19
Last Quarter
Nov 26
New

Hourly Weather History & Observations

Time (CDT) Temp. Windchill Dew Point Humidity Pressure Visibility Wind Dir Wind Speed Gust Speed Precip Events Conditions
1:55 AM 14.0 °F 2.0 °F 10.4 °F 86% 30.20 in 10.0 mi West 9.2 mph - N/A   Partly Cloudy
2:15 AM 14.0 °F 2.0 °F 10.4 °F 86% 30.20 in 10.0 mi West 9.2 mph - N/A   Scattered Clouds
2:35 AM 14.0 °F 1.2 °F 10.4 °F 86% 30.20 in 10.0 mi West 10.4 mph - N/A   Clear
2:55 AM 12.2 °F -1.0 °F 10.4 °F 92% 30.21 in 10.0 mi West 10.4 mph - N/A   Clear
3:15 AM 12.2 °F -1.0 °F 10.4 °F 92% 30.22 in 10.0 mi WSW 10.4 mph - N/A   Clear
3:35 AM 12.2 °F -1.8 °F 10.4 °F 92% 30.22 in 10.0 mi West 11.5 mph - N/A   Clear
3:55 AM 12.2 °F -3.1 °F 10.4 °F 92% 30.22 in 10.0 mi West 13.8 mph - N/A   Mostly Cloudy
4:15 AM 12.2 °F -2.5 °F 10.4 °F 92% 30.22 in 10.0 mi West 12.7 mph - N/A   Scattered Clouds
4:35 AM 12.2 °F -1.8 °F 10.4 °F 92% 30.22 in 10.0 mi West 11.5 mph 17.3 mph N/A   Clear
4:55 AM 12.2 °F -1.0 °F 10.4 °F 92% 30.22 in 10.0 mi West 10.4 mph 16.1 mph N/A   Scattered Clouds
5:15 AM 14.0 °F -0.2 °F 10.4 °F 86% 30.23 in 10.0 mi West 12.7 mph - N/A   Overcast
5:35 AM 14.0 °F -0.2 °F 12.2 °F 93% 30.23 in 9.0 mi West 12.7 mph - N/A Snow Light Snow
5:55 AM 15.8 °F 1.4 °F 12.2 °F 86% 30.22 in 10.0 mi West 13.8 mph - N/A Snow Light Snow
6:15 AM 15.8 °F 2.1 °F 12.2 °F 86% 30.23 in 10.0 mi West 12.7 mph 19.6 mph N/A Snow Light Snow
6:35 AM 15.8 °F 0.9 °F 12.2 °F 86% 30.23 in 10.0 mi West 15.0 mph - N/A   Overcast
6:55 AM 17.6 °F 2.7 °F 12.2 °F 79% 30.23 in 10.0 mi West 16.1 mph - N/A   Overcast
7:15 AM 15.8 °F -0.2 °F 12.2 °F 86% 30.23 in 10.0 mi West 17.3 mph - N/A Snow Light Snow
7:55 AM 15.8 °F -0.2 °F 12.2 °F 86% 30.24 in 10.0 mi West 17.3 mph - N/A   Overcast
8:15 AM 17.6 °F 4.3 °F 12.2 °F 79% 30.24 in 9.0 mi West 12.7 mph 19.6 mph N/A Snow Light Snow
8:35 AM 17.6 °F 2.7 °F 14.0 °F 86% 30.24 in 7.0 mi West 16.1 mph - N/A Snow Light Snow
8:55 AM 15.8 °F 1.4 °F 12.2 °F 86% 30.25 in 10.0 mi West 13.8 mph 21.9 mph N/A Snow Light Snow
9:15 AM 15.8 °F 0.9 °F 10.4 °F 79% 30.25 in 10.0 mi West 15.0 mph 20.7 mph N/A   Partly Cloudy
9:35 AM 15.8 °F -0.2 °F 12.2 °F 86% 30.26 in 10.0 mi West 17.3 mph - N/A Snow Light Snow
10:15 AM 17.6 °F 1.3 °F 12.2 °F 79% 30.27 in 5.0 mi West 19.6 mph 26.5 mph N/A Snow Light Snow
10:35 AM 17.6 °F 0.1 °F 12.2 °F 79% 30.27 in 8.0 mi West 23.0 mph 29.9 mph N/A Snow Light Snow
10:55 AM 17.6 °F 0.5 °F 12.2 °F 79% 30.27 in 5.0 mi West 21.9 mph 31.1 mph N/A Snow Light Snow
11:15 AM 17.6 °F 0.9 °F 12.2 °F 79% 30.26 in 8.0 mi West 20.7 mph 27.6 mph N/A Snow Light Snow
11:35 AM 17.6 °F 0.9 °F 10.4 °F 73% 30.26 in 9.0 mi West 20.7 mph 29.9 mph N/A Snow Light Snow
11:55 AM 19.4 °F 2.8 °F 8.6 °F 63% 30.26 in 9.0 mi West 21.9 mph 31.1 mph N/A   Mostly Cloudy
12:15 PM 19.4 °F 2.1 °F 10.4 °F 68% 30.26 in 7.0 mi West 24.2 mph 31.1 mph N/A Snow Light Snow
12:35 PM 19.4 °F 2.5 °F 12.2 °F 74% 30.26 in 2.5 mi West 23.0 mph - N/A Snow Light Snow
12:55 PM 19.4 °F 3.2 °F 10.4 °F 68% 30.26 in 10.0 mi West 20.7 mph 29.9 mph N/A Snow Light Snow
1:15 PM 21.2 °F 5.6 °F 10.4 °F 63% 30.26 in 10.0 mi West 20.7 mph - N/A   Overcast
1:35 PM 19.4 °F 4.1 °F 10.4 °F 68% 30.25 in 7.0 mi WNW 18.4 mph 29.9 mph N/A Snow Light Snow
1:55 PM 21.2 °F 6.8 °F 12.2 °F 68% 30.25 in 9.0 mi West 17.3 mph 33.4 mph N/A Snow Light Snow
2:15 PM 21.2 °F 5.6 °F 12.2 °F 68% 30.24 in 9.0 mi West 20.7 mph - N/A Snow Light Snow
2:35 PM 21.2 °F 5.2 °F 10.4 °F 63% 30.24 in 10.0 mi West 21.9 mph 28.8 mph N/A   Overcast
2:55 PM 21.2 °F 6.8 °F 10.4 °F 63% 30.24 in 10.0 mi West 17.3 mph 29.9 mph N/A   Overcast
3:15 PM 21.2 °F 5.6 °F 10.4 °F 63% 30.23 in 10.0 mi NW 20.7 mph 26.5 mph N/A   Overcast
3:35 PM 23.0 °F 7.2 °F 10.4 °F 59% 30.23 in 9.0 mi West 23.0 mph 31.1 mph N/A   Overcast
3:55 PM 23.0 °F 8.3 °F 10.4 °F 59% 30.23 in 10.0 mi WNW 19.6 mph 27.6 mph N/A   Overcast
4:15 PM 23.0 °F 9.6 °F 10.4 °F 59% 30.23 in 10.0 mi WNW 16.1 mph 27.6 mph N/A   Overcast
4:35 PM 23.0 °F 8.3 °F 10.4 °F 59% 30.23 in 10.0 mi WNW 19.6 mph 26.5 mph N/A   Overcast
4:55 PM 23.0 °F 6.9 °F 10.4 °F 59% 30.23 in 9.0 mi West 24.2 mph 32.2 mph N/A   Mostly Cloudy
5:15 PM 23.0 °F 8.3 °F 8.6 °F 54% 30.23 in 10.0 mi WNW 19.6 mph 31.1 mph N/A   Mostly Cloudy
5:35 PM 23.0 °F 8.0 °F 10.4 °F 59% 30.23 in 10.0 mi WNW 20.7 mph 32.2 mph N/A   Mostly Cloudy
5:55 PM 23.0 °F 7.6 °F 10.4 °F 59% 30.23 in 10.0 mi WNW 21.9 mph 29.9 mph N/A   Scattered Clouds
6:15 PM 21.2 °F 6.0 °F 8.6 °F 58% 30.24 in 10.0 mi WNW 19.6 mph 28.8 mph N/A   Mostly Cloudy
6:35 PM 21.2 °F 5.6 °F 6.8 °F 54% 30.24 in 10.0 mi WNW 20.7 mph - N/A   Partly Cloudy
6:55 PM 21.2 °F 7.8 °F 8.6 °F 58% 30.24 in 10.0 mi WNW 15.0 mph - N/A   Clear
7:15 PM 21.2 °F 8.3 °F 8.6 °F 58% 30.25 in 10.0 mi WNW 13.8 mph 21.9 mph N/A   Clear
7:35 PM 19.4 °F 5.0 °F 8.6 °F 63% 30.26 in 10.0 mi WNW 16.1 mph 23.0 mph N/A   Clear
7:55 PM 19.4 °F 6.0 °F 8.6 °F 63% 30.26 in 10.0 mi WNW 13.8 mph 19.6 mph N/A   Clear
8:15 PM 19.4 °F 8.6 °F 8.6 °F 63% 30.27 in 10.0 mi West 9.2 mph - N/A   Clear
8:35 PM 19.4 °F 7.9 °F 8.6 °F 63% 30.27 in 10.0 mi West 10.4 mph - N/A   Clear
8:55 PM 19.4 °F 8.6 °F 8.6 °F 63% 30.27 in 10.0 mi West 9.2 mph - N/A   Clear
9:15 PM 17.6 °F 7.3 °F 8.6 °F 68% 30.27 in 10.0 mi WSW 8.1 mph - N/A   Clear
9:35 PM 17.6 °F 7.3 °F 10.4 °F 73% 30.27 in 10.0 mi West 8.1 mph - N/A   Clear
9:55 PM 17.6 °F 5.7 °F 10.4 °F 73% 30.27 in 10.0 mi West 10.4 mph - N/A   Clear
10:15 PM 17.6 °F 3.2 °F 10.4 °F 73% 30.28 in 10.0 mi West 15.0 mph - N/A   Clear
10:35 PM 17.6 °F 5.0 °F 10.4 °F 73% 30.28 in 10.0 mi West 11.5 mph - N/A   Clear
10:55 PM 19.4 °F 7.2 °F 10.4 °F 68% 30.28 in 10.0 mi West 11.5 mph 18.4 mph N/A   Clear
11:35 PM 19.4 °F 7.9 °F 10.4 °F 68% 30.29 in 10.0 mi West 10.4 mph - N/A   Mostly Cloudy
11:55 PM 17.6 °F 5.7 °F 12.2 °F 79% 30.29 in 10.0 mi West 10.4 mph 16.1 mph N/A   Partly Cloudy